User: anonymous   Login
Location: Unspecified
(0.0000°N, 0.0000°E)
Time: 18:02:17
(UTC+00:00)
Language:

LANDSAT 8 - Orbit

View from above orbital plane
View from above orbital plane
View from above satellite
View from above satellite

Ground track
Ground track

The orbit data is extracted from the following two-line orbital elements,

1 39084U 13008A   15147.36370156 -.00000159  00000-0 -25296-4 0  9990
2 39084 098.2252 217.4424 0001199 086.7432 273.3899 14.57107875121570
Epoch (UTC): 27 May 2015 08:43:43
Eccentricity: 0.0001199
inclination: 98.2252°
perigee height: 701 km
apogee height: 703 km
right ascension of ascending node: 217.4424°
argument of perigee: 86.7432°
revolutions per day: 14.57107875
mean anomaly at epoch: 273.3899°
orbit number at epoch: 12157

The dashed part of the orbit path shows where the satellite is in the earth's shadow,  

DLR